WZZ2114 EPWA-EKCH

Flight info

Callsign WZZ2114
Flight time 1h 7m
Altitude 24000
Route OLILA L621 RILAB/N0432F360 L621 LUSID DCT ROE M743 TIDVU
Aircraft A21N/M-SDE2E3FGHIRWXY/LB1

Departure

Time 2026-05-04 17:52
Airport Warsaw Chopin Airport (EPWA)

Arrival

Time 2026-05-04 18:59
Airport Copenhagen Kastrup Airport (EKCH)
Time Latitude Longitude Altitude Speed Heading
2026-05-04 17:23 52.16794 20.97029 344 ft 0 kts 276°
2026-05-04 17:48 52.16794 20.97028 344 ft 1 kts 276°
2026-05-04 17:48 52.16796 20.96987 344 ft 5 kts 269°
2026-05-04 17:49 52.16760 20.96956 344 ft 8 kts 172°
2026-05-04 17:49 52.16701 20.96998 351 ft 11 kts 152°
2026-05-04 17:49 52.16651 20.97098 349 ft 13 kts 115°
2026-05-04 17:49 52.16611 20.97240 346 ft 15 kts 115°
2026-05-04 17:50 52.16566 20.97401 346 ft 17 kts 114°
2026-05-04 17:50 52.16516 20.97580 351 ft 18 kts 114°
2026-05-04 17:50 52.16465 20.97760 344 ft 14 kts 116°
2026-05-04 17:50 52.16404 20.97795 349 ft 11 kts 203°
2026-05-04 17:51 52.16330 20.97739 349 ft 12 kts 206°
2026-05-04 17:51 52.16304 20.97670 347 ft 9 kts 292°
2026-05-04 17:51 52.16354 20.97498 347 ft 45 kts 294°
2026-05-04 17:51 52.16606 20.96599 352 ft 125 kts 295°
2026-05-04 17:52 52.17048 20.95054 528 ft 161 kts 294°
2026-05-04 17:52 52.17519 20.93394 1182 ft 162 kts 291°
2026-05-04 17:52 52.17980 20.91652 1775 ft 174 kts 289°
2026-05-04 17:52 52.18524 20.89801 2323 ft 194 kts 303°
2026-05-04 17:53 52.19730 20.88574 2811 ft 220 kts 339°
2026-05-04 17:53 52.21125 20.87448 3354 ft 237 kts 317°
2026-05-04 17:53 52.22484 20.85695 3891 ft 258 kts 320°
2026-05-04 17:53 52.23959 20.83943 4782 ft 265 kts 322°
2026-05-04 17:54 52.25459 20.82233 5734 ft 268 kts 322°
2026-05-04 17:54 52.27010 20.80501 6681 ft 272 kts 323°
2026-05-04 17:54 52.28582 20.78765 7597 ft 274 kts 323°
2026-05-04 17:54 52.30176 20.77013 8484 ft 278 kts 322°
2026-05-04 17:55 52.31794 20.75235 9365 ft 282 kts 322°
2026-05-04 17:55 52.33437 20.73435 10155 ft 289 kts 322°
2026-05-04 17:55 52.35166 20.71546 10581 ft 308 kts 322°
2026-05-04 17:55 52.36390 20.70207 10880 ft 319 kts 322°
2026-05-04 17:56 52.38253 20.68172 11547 ft 326 kts 322°
2026-05-04 17:56 52.40137 20.66119 12323 ft 330 kts 322°
2026-05-04 17:56 52.42063 20.64028 13128 ft 334 kts 322°
2026-05-04 17:56 52.44041 20.61877 13933 ft 339 kts 321°
2026-05-04 17:57 52.46011 20.59726 14662 ft 342 kts 322°
2026-05-04 17:57 52.47975 20.57570 15381 ft 346 kts 322°
2026-05-04 17:57 52.49984 20.55361 16114 ft 350 kts 322°
2026-05-04 17:57 52.52017 20.53128 16842 ft 353 kts 322°
2026-05-04 17:58 52.54072 20.50872 17563 ft 357 kts 323°
2026-05-04 17:58 52.56147 20.48590 18262 ft 361 kts 323°
2026-05-04 17:58 52.58241 20.46283 18888 ft 364 kts 323°
2026-05-04 17:58 52.60358 20.43950 19518 ft 367 kts 323°
2026-05-04 17:59 52.62484 20.41603 20163 ft 370 kts 322°
2026-05-04 17:59 52.64627 20.39233 20780 ft 373 kts 322°
2026-05-04 17:59 52.68961 20.34433 22007 ft 378 kts 322°
2026-05-04 18:00 52.71005 20.31728 22601 ft 376 kts 311°
2026-05-04 18:00 52.72794 20.28572 23197 ft 378 kts 308°
2026-05-04 18:00 52.74545 20.25318 23684 ft 380 kts 308°
2026-05-04 18:00 52.76299 20.22052 23880 ft 381 kts 308°
2026-05-04 18:01 52.78059 20.18781 23920 ft 381 kts 308°
2026-05-04 18:01 52.79820 20.15507 23917 ft 381 kts 308°
2026-05-04 18:01 52.81557 20.12209 23911 ft 380 kts 306°
2026-05-04 18:02 52.84951 20.05500 23904 ft 380 kts 306°
2026-05-04 18:02 52.86645 20.02144 23903 ft 380 kts 306°
2026-05-04 18:02 52.88336 19.98782 23903 ft 380 kts 306°
2026-05-04 18:02 52.90025 19.95420 23906 ft 380 kts 306°
2026-05-04 18:03 52.91716 19.92056 23907 ft 380 kts 306°
2026-05-04 18:03 52.93406 19.88685 23905 ft 380 kts 306°
2026-05-04 18:03 52.95096 19.85313 23906 ft 380 kts 306°
2026-05-04 18:03 52.96786 19.81942 23908 ft 380 kts 306°
2026-05-04 18:04 52.98474 19.78572 23908 ft 380 kts 306°
2026-05-04 18:04 53.00161 19.75198 23911 ft 380 kts 306°
2026-05-04 18:04 53.03535 19.68421 24350 ft 383 kts 306°
2026-05-04 18:05 53.05234 19.64999 24864 ft 385 kts 306°
2026-05-04 18:05 53.07022 19.61647 25352 ft 388 kts 308°
2026-05-04 18:05 53.08696 19.58138 25839 ft 388 kts 303°
2026-05-04 18:05 53.10290 19.54506 26307 ft 390 kts 302°
2026-05-04 18:06 53.13518 19.47193 27228 ft 394 kts 303°
2026-05-04 18:06 53.15158 19.43518 27671 ft 396 kts 303°
2026-05-04 18:06 53.16809 19.39834 28146 ft 398 kts 303°
2026-05-04 18:07 53.18467 19.36132 28605 ft 399 kts 303°
2026-05-04 18:07 53.20128 19.32408 29046 ft 401 kts 303°
2026-05-04 18:07 53.21797 19.28666 29467 ft 403 kts 303°
2026-05-04 18:07 53.23474 19.24907 29887 ft 405 kts 303°
2026-05-04 18:08 53.25156 19.21133 30230 ft 406 kts 303°
2026-05-04 18:08 53.26843 19.17337 30580 ft 408 kts 303°
2026-05-04 18:08 53.28535 19.13529 30920 ft 409 kts 303°
2026-05-04 18:08 53.30235 19.09711 31266 ft 410 kts 303°
2026-05-04 18:09 53.33601 19.02106 32059 ft 408 kts 302°
2026-05-04 18:09 53.36941 18.94513 32949 ft 403 kts 302°
2026-05-04 18:10 53.38595 18.90746 33379 ft 400 kts 302°
2026-05-04 18:10 53.40262 18.86946 33804 ft 398 kts 302°
2026-05-04 18:10 53.41896 18.83220 34124 ft 397 kts 302°
2026-05-04 18:10 53.43534 18.79480 34345 ft 398 kts 302°
2026-05-04 18:11 53.45170 18.75730 34562 ft 399 kts 302°
2026-05-04 18:11 53.46790 18.72022 34787 ft 399 kts 302°
2026-05-04 18:11 53.48433 18.68261 35006 ft 400 kts 302°
2026-05-04 18:11 53.50073 18.64486 35229 ft 400 kts 302°
2026-05-04 18:12 53.51716 18.60704 35443 ft 401 kts 302°
2026-05-04 18:12 53.53353 18.56923 35654 ft 401 kts 302°
2026-05-04 18:12 53.54997 18.53123 35857 ft 401 kts 302°
2026-05-04 18:12 53.56644 18.49317 35955 ft 403 kts 302°
2026-05-04 18:13 53.59935 18.41697 35971 ft 402 kts 302°
2026-05-04 18:14 53.64839 18.30267 35941 ft 401 kts 301°
2026-05-04 18:14 53.68115 18.22641 35939 ft 401 kts 302°
2026-05-04 18:15 53.74650 18.07382 35945 ft 401 kts 301°
2026-05-04 18:16 53.77902 17.99726 35955 ft 401 kts 301°
2026-05-04 18:16 53.81130 17.92105 35949 ft 401 kts 301°
2026-05-04 18:17 53.86016 17.80520 35953 ft 401 kts 301°
2026-05-04 18:18 53.90863 17.68975 35953 ft 400 kts 301°
2026-05-04 18:18 53.94085 17.61270 35956 ft 400 kts 301°
2026-05-04 18:19 53.98909 17.49692 35981 ft 400 kts 300°
2026-05-04 18:19 54.02115 17.41963 35960 ft 400 kts 300°
2026-05-04 18:20 54.04555 17.34915 35958 ft 396 kts 295°
2026-05-04 18:20 54.07457 17.26917 35960 ft 398 kts 299°
2026-05-04 18:21 54.10592 17.19133 35965 ft 399 kts 300°
2026-05-04 18:21 54.13767 17.11381 35975 ft 399 kts 300°
2026-05-04 18:22 54.17298 17.04011 35971 ft 403 kts 306°
2026-05-04 18:22 54.20736 16.96519 35964 ft 399 kts 301°
2026-05-04 18:23 54.23710 16.88572 35965 ft 395 kts 294°
2026-05-04 18:23 54.26481 16.80417 35964 ft 398 kts 298°
2026-05-04 18:24 54.29555 16.72523 35957 ft 399 kts 299°
2026-05-04 18:24 54.32926 16.64942 35968 ft 403 kts 306°
2026-05-04 18:25 54.36426 16.57472 35963 ft 400 kts 301°
2026-05-04 18:25 54.39636 16.49684 35985 ft 399 kts 299°
2026-05-04 18:26 54.42805 16.41841 35968 ft 400 kts 299°
2026-05-04 18:26 54.45866 16.33966 35964 ft 399 kts 298°
2026-05-04 18:27 54.48849 16.25876 35980 ft 396 kts 294°
2026-05-04 18:27 54.51648 16.17740 35961 ft 398 kts 297°
2026-05-04 18:28 54.54711 16.09708 35955 ft 399 kts 298°
2026-05-04 18:28 54.57789 16.01839 35959 ft 398 kts 298°
2026-05-04 18:29 54.60879 15.93932 35953 ft 397 kts 298°
2026-05-04 18:29 54.64247 15.86340 35944 ft 398 kts 302°
2026-05-04 18:30 54.69031 15.74730 35946 ft 394 kts 298°
2026-05-04 18:31 54.72082 15.66862 35949 ft 393 kts 298°
2026-05-04 18:31 54.75110 15.58991 35950 ft 392 kts 298°
2026-05-04 18:31 54.76609 15.55097 35684 ft 389 kts 298°
2026-05-04 18:32 54.78103 15.51194 35297 ft 386 kts 297°
2026-05-04 18:32 54.79578 15.47345 34879 ft 381 kts 297°
2026-05-04 18:32 54.81039 15.43534 34391 ft 378 kts 297°
2026-05-04 18:32 54.82491 15.39740 33880 ft 376 kts 297°
2026-05-04 18:33 54.83924 15.35978 33347 ft 372 kts 297°
2026-05-04 18:33 54.85347 15.32244 32825 ft 369 kts 297°
2026-05-04 18:33 54.86750 15.28548 32331 ft 364 kts 297°
2026-05-04 18:33 54.88137 15.24900 31843 ft 360 kts 297°
2026-05-04 18:34 54.89508 15.21280 31356 ft 355 kts 296°
2026-05-04 18:34 54.90746 15.17620 30864 ft 348 kts 292°
2026-05-04 18:34 54.91866 15.13922 30407 ft 343 kts 291°
2026-05-04 18:34 54.92962 15.10268 29975 ft 338 kts 291°
2026-05-04 18:35 54.94043 15.06666 29468 ft 334 kts 291°
2026-05-04 18:35 54.95111 15.03110 28969 ft 329 kts 291°
2026-05-04 18:35 54.96164 14.99603 28530 ft 325 kts 291°
2026-05-04 18:35 54.97188 14.96192 28100 ft 320 kts 291°
2026-05-04 18:36 54.98209 14.92784 27699 ft 315 kts 291°
2026-05-04 18:36 54.99211 14.89435 27304 ft 310 kts 291°
2026-05-04 18:36 55.00202 14.86115 26893 ft 307 kts 291°
2026-05-04 18:36 55.01179 14.82835 26491 ft 303 kts 291°
2026-05-04 18:37 55.02159 14.79538 26114 ft 312 kts 291°
2026-05-04 18:37 55.03152 14.76197 25710 ft 309 kts 291°
2026-05-04 18:37 55.04137 14.72892 25301 ft 305 kts 291°
2026-05-04 18:37 55.05108 14.69621 24914 ft 302 kts 291°
2026-05-04 18:38 55.06073 14.66371 24496 ft 301 kts 291°
2026-05-04 18:38 55.07029 14.63140 24094 ft 299 kts 291°
2026-05-04 18:38 55.07977 14.59934 23732 ft 296 kts 291°
2026-05-04 18:38 55.08917 14.56754 23339 ft 293 kts 291°
2026-05-04 18:39 55.09846 14.53602 22917 ft 291 kts 291°
2026-05-04 18:39 55.10763 14.50481 22512 ft 287 kts 292°
2026-05-04 18:39 55.11669 14.47395 22117 ft 284 kts 292°
2026-05-04 18:39 55.12573 14.44314 21727 ft 293 kts 292°
2026-05-04 18:40 55.13546 14.40962 21307 ft 327 kts 292°
2026-05-04 18:40 55.14249 14.38543 21021 ft 344 kts 293°
2026-05-04 18:40 55.15344 14.34811 20532 ft 344 kts 294°
2026-05-04 18:40 55.16435 14.31100 20068 ft 343 kts 294°
2026-05-04 18:41 55.17519 14.27395 19606 ft 341 kts 294°
2026-05-04 18:41 55.18591 14.23717 19156 ft 339 kts 294°
2026-05-04 18:41 55.19660 14.20043 18711 ft 337 kts 294°
2026-05-04 18:41 55.20722 14.16384 18284 ft 336 kts 294°
2026-05-04 18:42 55.21775 14.12749 17825 ft 334 kts 294°
2026-05-04 18:42 55.22820 14.09135 17381 ft 332 kts 294°
2026-05-04 18:42 55.23858 14.05540 16953 ft 330 kts 294°
2026-05-04 18:42 55.24889 14.01966 16548 ft 328 kts 294°
2026-05-04 18:43 55.25915 13.98412 16169 ft 326 kts 294°
2026-05-04 18:43 55.26934 13.94871 15793 ft 324 kts 294°
2026-05-04 18:43 55.27945 13.91355 15423 ft 322 kts 294°
2026-05-04 18:43 55.28951 13.87847 15044 ft 321 kts 294°
2026-05-04 18:44 55.29947 13.84358 14655 ft 319 kts 294°
2026-05-04 18:44 55.30604 13.82055 14394 ft 318 kts 294°
2026-05-04 18:44 55.31925 13.77430 13872 ft 316 kts 294°
2026-05-04 18:44 55.32902 13.73989 13464 ft 314 kts 293°
2026-05-04 18:45 55.33871 13.70565 13044 ft 312 kts 294°
2026-05-04 18:45 55.34834 13.67161 12666 ft 311 kts 294°
2026-05-04 18:45 55.35794 13.63766 12299 ft 309 kts 294°
2026-05-04 18:45 55.36751 13.60387 11911 ft 308 kts 294°
2026-05-04 18:46 55.37693 13.57055 11599 ft 307 kts 294°
2026-05-04 18:46 55.38645 13.53683 11303 ft 298 kts 294°
2026-05-04 18:46 55.39532 13.50550 11120 ft 284 kts 294°
2026-05-04 18:46 55.40392 13.47522 10971 ft 269 kts 294°
2026-05-04 18:47 55.41207 13.44632 10749 ft 259 kts 294°
2026-05-04 18:47 55.41999 13.41811 10385 ft 256 kts 294°
2026-05-04 18:47 55.42782 13.39018 9983 ft 254 kts 294°
2026-05-04 18:47 55.43561 13.36234 9552 ft 252 kts 294°
2026-05-04 18:48 55.44334 13.33473 9109 ft 251 kts 294°
2026-05-04 18:48 55.45102 13.30721 8605 ft 249 kts 294°
2026-05-04 18:48 55.45772 13.27937 8119 ft 246 kts 283°
2026-05-04 18:48 55.45908 13.24942 7835 ft 247 kts 266°
2026-05-04 18:49 55.45722 13.21940 7685 ft 246 kts 263°
2026-05-04 18:49 55.45520 13.18944 7554 ft 246 kts 264°
2026-05-04 18:49 55.45605 13.15954 7423 ft 246 kts 283°
2026-05-04 18:49 55.46329 13.13239 7302 ft 249 kts 304°
2026-05-04 18:50 55.47557 13.11068 7189 ft 252 kts 319°
2026-05-04 18:50 55.49133 13.09665 7071 ft 259 kts 340°
2026-05-04 18:50 55.50915 13.09080 6958 ft 261 kts 347°
2026-05-04 18:50 55.52712 13.08634 6841 ft 261 kts 347°
2026-05-04 18:51 55.54504 13.08175 6729 ft 260 kts 347°
2026-05-04 18:51 55.56289 13.07697 6593 ft 259 kts 347°
2026-05-04 18:51 55.58070 13.07209 6337 ft 258 kts 347°
2026-05-04 18:51 55.59836 13.06718 5983 ft 256 kts 347°
2026-05-04 18:52 55.61594 13.06225 5617 ft 255 kts 347°
2026-05-04 18:52 55.63316 13.05742 5383 ft 246 kts 347°
2026-05-04 18:52 55.64966 13.05278 5229 ft 234 kts 346°
2026-05-04 18:52 55.66552 13.04827 4964 ft 229 kts 346°
2026-05-04 18:53 55.68106 13.04320 4625 ft 225 kts 337°
2026-05-04 18:53 55.69386 13.02869 4290 ft 218 kts 311°
2026-05-04 18:53 55.70342 13.00809 3970 ft 215 kts 306°
2026-05-04 18:53 55.71231 12.98709 3649 ft 211 kts 305°
2026-05-04 18:54 55.72093 12.96628 3325 ft 207 kts 305°
2026-05-04 18:54 55.72816 12.94464 3001 ft 202 kts 286°
2026-05-04 18:54 55.72894 12.92023 2698 ft 198 kts 267°
2026-05-04 18:54 55.72740 12.89620 2376 ft 194 kts 265°
2026-05-04 18:55 55.72570 12.87253 2070 ft 192 kts 265°
2026-05-04 18:55 55.72174 12.82713 1964 ft 172 kts 251°
2026-05-04 18:55 55.71529 12.80880 2025 ft 179 kts 234°
2026-05-04 18:56 55.70652 12.79299 2030 ft 181 kts 226°
2026-05-04 18:56 55.69695 12.77850 1914 ft 181 kts 226°
2026-05-04 18:56 55.68748 12.76387 1698 ft 180 kts 226°
2026-05-04 18:56 55.67819 12.74945 1487 ft 173 kts 225°
2026-05-04 18:57 55.66943 12.73583 1232 ft 161 kts 225°
2026-05-04 18:57 55.66179 12.72397 1002 ft 132 kts 226°
2026-05-04 18:57 55.65500 12.71340 802 ft 129 kts 225°
2026-05-04 18:57 55.64827 12.70295 642 ft 128 kts 224°
2026-05-04 18:58 55.64144 12.69262 454 ft 130 kts 222°
2026-05-04 18:58 55.63456 12.68219 313 ft 130 kts 225°
2026-05-04 18:58 55.62794 12.67165 155 ft 130 kts 225°
2026-05-04 18:58 55.62122 12.66110 29 ft 125 kts 221°
2026-05-04 18:59 55.61552 12.65228 24 ft 82 kts 221°
2026-05-04 18:59 55.61285 12.64752 24 ft 37 kts 243°
2026-05-04 18:59 55.61209 12.64390 22 ft 25 kts 251°
2026-05-04 18:59 55.61181 12.64231 22 ft 8 kts 270°
2026-05-04 19:00 55.61210 12.64129 24 ft 11 kts 323°
2026-05-04 19:00 55.61290 12.64125 22 ft 13 kts 30°
2026-05-04 19:00 55.61369 12.64216 24 ft 14 kts 33°
2026-05-04 19:00 55.61455 12.64315 12 ft 16 kts 33°
2026-05-04 19:01 55.61552 12.64426 22 ft 18 kts 33°
2026-05-04 19:01 55.61657 12.64547 24 ft 13 kts 32°
2026-05-04 19:01 55.61705 12.64570 22 ft 7 kts 355°
2026-05-04 19:01 55.61741 12.64559 25 ft 9 kts 349°
2026-05-04 19:02 55.61811 12.64537 22 ft 11 kts 350°
2026-05-04 19:02 55.61897 12.64510 22 ft 14 kts 351°
2026-05-04 19:02 55.61997 12.64531 22 ft 14 kts 26°
2026-05-04 19:02 55.62029 12.64565 22 ft 4 kts 32°
2026-05-04 19:03 55.62049 12.64587 24 ft 0 kts 32°
2026-05-04 19:03 55.62050 12.64588 24 ft 1 kts 32°
2026-05-04 19:03 55.62065 12.64605 22 ft 3 kts 33°
2026-05-04 19:03 55.62080 12.64623 22 ft 4 kts 33°
2026-05-04 19:04 55.62118 12.64648 23 ft 8 kts 352°
2026-05-04 19:04 55.62171 12.64570 23 ft 12 kts 305°
2026-05-04 19:04 55.62227 12.64417 21 ft 17 kts 303°
2026-05-04 19:04 55.62302 12.64216 20 ft 21 kts 303°
2026-05-04 19:05 55.62387 12.63985 21 ft 22 kts 303°
2026-05-04 19:05 55.62486 12.63798 22 ft 17 kts 336°
2026-05-04 19:05 55.62564 12.63767 22 ft 7 kts
2026-05-04 19:05 55.62606 12.63781 22 ft 3 kts 20°
2026-05-04 19:06 55.62613 12.63785 22 ft 0 kts 21°
2026-05-04 19:07 55.62629 12.63797 22 ft 4 kts 26°
2026-05-04 19:07 55.62669 12.63838 22 ft 9 kts 32°
2026-05-04 19:07 55.62731 12.63908 23 ft 12 kts 33°
2026-05-04 19:07 55.62791 12.63956 22 ft 9 kts 358°
2026-05-04 19:08 55.62836 12.63876 22 ft 10 kts 288°
2026-05-04 19:08 55.62863 12.63804 22 ft 4 kts 347°
2026-05-04 19:08 55.62891 12.63804 22 ft 2 kts 11°
2026-05-04 19:08 55.62894 12.63805 22 ft 0 kts 10°